Home   Weather   La Plata   Past weeks
Flag for Argentina

Past Weather in La Plata, Buenos Aires, Argentina — Yesterday and Last 2 Weeks

Now
49 °F

Partly sunny.


Feels Like: 44 °F
Forecast: N/A
Wind: 14 mph from Southeast

Location: Ezeiza Aerodrome

Current Time: Oct 14, 2019 at 8:33:31 pm

Latest Report: Oct 14, 2019 at 7:00 pm


Visibility: 6 mi

Pressure: 30.42 "Hg

Humidity: 65%

Dew Point: 38 °F

Location of La PlataLocation

Past Weather in La Plata — Graph

°F

La Plata Temperature Yesterday

Maximum temperature yesterday: 65 °F (at 4:00 pm)
Minimum temperature yesterday: 50 °F (at 11:00 pm)
Average temperature yesterday: 60 °F

High & Low Weather Summary for the Past Weeks

 TemperatureHumidityPressure
High81 °F (Sep 29, 6:00 pm)100% (Oct 11, 7:00 am)30.46 "Hg (Oct 11, 7:00 am)
Low40 °F (Oct 3, 6:00 am)20% (Oct 8, 4:00 pm)29.50 "Hg (Sep 30, 3:00 pm)
Average61 °F69%29.97 "Hg
* Reported Sep 29 6:00 pm — Oct 14 6:00 pm, La Plata. Weather by CustomWeather, © 2019

Note: Actual official high and low records may vary slightly from our data, if they occured in-between our weather recording intervals... More about our weather records

Advertising

La Plata Weather History for the Previous 24 Hours

Scroll right to see more
 ConditionsComfort  
Time TempWeatherWind HumidityBarometerVisibility
6:00 pm
Mon, Oct 14
51 °FPartly sunny.15 mph64%30.41 "Hg6 mi
5:00 pm54 °FPartly sunny.17 mph59%30.40 "Hg6 mi
4:00 pm54 °FOvercast.18 mph58%30.39 "Hg6 mi
3:00 pm54 °FOvercast.17 mph58%30.40 "Hg6 mi
2:00 pm54 °FOvercast.16 mph58%30.40 "Hg6 mi
1:00 pm54 °FOvercast.17 mph61%30.42 "Hg6 mi
12:00 pm54 °FOvercast.16 mph57%30.44 "Hg6 mi
11:00 am51 °FOvercast.14 mph60%30.46 "Hg6 mi
10:00 am50 °FOvercast.14 mph64%30.46 "Hg6 mi
9:00 am49 °FOvercast.14 mph70%30.45 "Hg6 mi
8:00 am47 °FOvercast.12 mph71%30.44 "Hg6 mi
7:00 am46 °FOvercast.8 mph78%30.43 "Hg6 mi
6:00 am46 °FOvercast.9 mph78%30.40 "Hg6 mi
5:00 am46 °FOvercast.10 mph74%30.39 "Hg6 mi
4:00 am47 °FOvercast.8 mph67%30.38 "Hg6 mi
3:00 am48 °FOvercast.7 mph59%30.38 "Hg6 mi
2:00 am49 °FOvercast.7 mph58%30.37 "Hg6 mi
1:00 am48 °FPassing clouds.9 mph61%30.34 "Hg6 mi
12:00 am49 °FPassing clouds.7 mph66%30.32 "Hg6 mi
11:00 pm
Sun, Oct 13
50 °FPassing clouds.12 mph68%30.27 "Hg6 mi
10:00 pm51 °FPassing clouds.12 mph78%30.27 "Hg6 mi
9:00 pm54 °FPassing clouds.14 mph75%30.26 "Hg6 mi
8:00 pm58 °FPassing clouds.12 mph64%30.21 "Hg6 mi
Weather by CustomWeather, © 2019

See weather overview